Location: Albert Place
(40.7505°N, 111.9230°W)
Time: 22:52:06
(UTC+00:00)

SKYMED 2 - Pass Details

Date: 13 December 2025
Orbit: 622 x 623 km, 97.9° (Epoch: 14 January)

Event Time Altitude Azimuth Distance (km) Brightness Sun altitude
Rises 12:14:52 0° 152° (SSE) 2,891 7.5 -27.3°
Reaches altitude 10° 12:17:06 10° 146° (SE) 1,989 6.6 -26.8°
Maximum altitude 12:21:15 47° 73° (ENE) 826 4.5 -26.1°
Enters shadow 12:23:00 30° 18° (NNE) 1,128 4.9 -25.7°
